User: anonymous   Login
Location: Caltech
(34.1382°N, 118.1253°W)
Time: 10:29:49
(UTC-07:00)
Language:

Gurwin Techsat 1B - Orbit

View from above orbital plane
View from above orbital plane
View from above satellite
View from above satellite

Ground track
Ground track

The orbit data is extracted from the following two-line orbital elements,

1 25397U 98043D   14297.14726977  .00000195  00000-0  10435-3 0  4824
2 25397 098.4869 250.4279 0000305 003.6135 063.4759 14.23473188846213
Epoch (UTC): 24 October 2014 03:32:04
Eccentricity: 0.0000305
inclination: 98.4869°
perigee height: 813 km
apogee height: 814 km
right ascension of ascending node: 250.4279°
argument of perigee: 3.6135°
revolutions per day: 14.23473188
mean anomaly at epoch: 63.4759°
orbit number at epoch: 84621

The dashed part of the orbit path shows where the satellite is in the earth's shadow,  

DLR